Wetterdaten: Woche 18.11.13 - 24.11.13 (KW47)
Datum Zeit Temperatur Luftfeuchte Luftdruck Niederschlag Windrichtung Sonnenschein Solar Wind
18.11.2013 00:00 2,8 C 95 % 1017,8 hPa 0,0 l/m W-SW 0,00 h 0 W/m 11,5 km/h (2 Bft)
18.11.2013 01:00 2,8 C 95 % 1017,0 hPa 0,0 l/m SW 0,00 h 0 W/m 10,3 km/h (2 Bft)
18.11.2013 02:00 2,7 C 95 % 1016,7 hPa 0,0 l/m SW 0,00 h 0 W/m 12,4 km/h (3 Bft)
18.11.2013 03:00 2,7 C 95 % 1015,9 hPa 0,0 l/m SW 0,00 h 0 W/m 10,4 km/h (2 Bft)
18.11.2013 04:00 2,6 C 95 % 1014,9 hPa 0,0 l/m SW 0,00 h 0 W/m 6,7 km/h (2 Bft)
18.11.2013 05:00 2,3 C 96 % 1014,2 hPa 0,0 l/m SW 0,00 h 0 W/m 6,9 km/h (2 Bft)
18.11.2013 06:00 2,2 C 96 % 1013,6 hPa 0,0 l/m SW 0,00 h 0 W/m 4,0 km/h (1 Bft)
18.11.2013 07:00 1,9 C 97 % 1013,7 hPa 0,0 l/m SW 0,00 h 6 W/m 4,8 km/h (1 Bft)
18.11.2013 08:00 1,7 C 97 % 1013,7 hPa 0,0 l/m SW 0,00 h 21 W/m 6,4 km/h (2 Bft)
18.11.2013 09:00 1,8 C 97 % 1013,5 hPa 0,0 l/m SW 0,00 h 54 W/m 4,5 km/h (1 Bft)
18.11.2013 10:00 2,2 C 98 % 1013,3 hPa 0,0 l/m SW 0,00 h 76 W/m 4,9 km/h (1 Bft)
18.11.2013 11:00 2,8 C 98 % 1012,9 hPa 0,0 l/m SW 0,00 h 102 W/m 7,8 km/h (2 Bft)
18.11.2013 12:00 3,3 C 97 % 1012,3 hPa 0,0 l/m S-SW 0,00 h 114 W/m 7,0 km/h (2 Bft)
18.11.2013 13:00 3,7 C 97 % 1011,4 hPa 0,0 l/m S-SW 0,00 h 103 W/m 4,0 km/h (1 Bft)
18.11.2013 14:00 3,9 C 97 % 1010,9 hPa 0,0 l/m S-SW 0,00 h 81 W/m 2,0 km/h (1 Bft)
18.11.2013 15:00 3,8 C 98 % 1010,5 hPa 0,0 l/m N 0,00 h 47 W/m 0,9 km/h (0 Bft)
18.11.2013 16:00 3,7 C 98 % 1010,4 hPa 0,0 l/m N 0,00 h 15 W/m 0,0 km/h (0 Bft)
18.11.2013 17:00 3,0 C 98 % 1010,3 hPa 0,0 l/m N 0,00 h 0 W/m 0,8 km/h (0 Bft)
18.11.2013 18:00 2,5 C 98 % 1010,3 hPa 0,0 l/m W-SW 0,00 h 0 W/m 5,1 km/h (1 Bft)
18.11.2013 19:00 2,5 C 98 % 1009,8 hPa 0,0 l/m W-NW 0,00 h 0 W/m 4,9 km/h (1 Bft)
18.11.2013 20:00 2,2 C 98 % 1009,1 hPa 0,0 l/m W-NW 0,00 h 0 W/m 5,2 km/h (1 Bft)
18.11.2013 21:00 2,2 C 98 % 1008,8 hPa 0,0 l/m W-NW 0,00 h 0 W/m 3,2 km/h (1 Bft)
18.11.2013 22:00 2,4 C 98 % 1008,4 hPa 0,0 l/m W-NW 0,00 h 0 W/m 5,3 km/h (1 Bft)
18.11.2013 23:00 2,5 C 98 % 1007,8 hPa 0,0 l/m W-NW 0,00 h 0 W/m 6,6 km/h (2 Bft)
19.11.2013 00:00 2,2 C 98 % 1007,2 hPa 0,0 l/m W-NW 0,00 h 0 W/m 4,0 km/h (1 Bft)
19.11.2013 01:00 2,0 C 98 % 1006,3 hPa 0,0 l/m W-NW 0,00 h 0 W/m 5,7 km/h (1 Bft)
19.11.2013 02:00 1,7 C 98 % 1005,6 hPa 0,0 l/m NW 0,00 h 0 W/m 6,5 km/h (2 Bft)
19.11.2013 03:00 1,6 C 98 % 1004,8 hPa 0,0 l/m N-NW 0,00 h 0 W/m 5,6 km/h (1 Bft)
19.11.2013 04:00 1,3 C 99 % 1004,3 hPa 0,0 l/m N-NO 0,00 h 0 W/m 7,2 km/h (2 Bft)
19.11.2013 05:00 1,3 C 99 % 1004,0 hPa 0,0 l/m N-NO 0,00 h 0 W/m 5,9 km/h (2 Bft)
19.11.2013 06:00 1,2 C 99 % 1003,9 hPa 0,0 l/m N-NO 0,00 h 0 W/m 5,5 km/h (1 Bft)
19.11.2013 07:00 1,1 C 99 % 1004,2 hPa 0,0 l/m N-NO 0,00 h 6 W/m 2,3 km/h (1 Bft)
19.11.2013 08:00 1,1 C 99 % 1004,6 hPa 0,0 l/m N-NO 0,00 h 17 W/m 2,1 km/h (1 Bft)
19.11.2013 09:00 1,2 C 99 % 1004,4 hPa 0,0 l/m N-NO 0,00 h 38 W/m 4,1 km/h (1 Bft)
19.11.2013 10:00 1,4 C 99 % 1004,5 hPa 0,0 l/m N-NO 0,00 h 45 W/m 3,5 km/h (1 Bft)
19.11.2013 11:00 1,6 C 99 % 1004,4 hPa 0,0 l/m N-NO 0,00 h 55 W/m 4,9 km/h (1 Bft)
19.11.2013 12:00 2,1 C 99 % 1003,9 hPa 0,0 l/m N-NO 0,00 h 70 W/m 4,9 km/h (1 Bft)
19.11.2013 13:00 2,5 C 99 % 1003,6 hPa 0,0 l/m N-NO 0,00 h 24 W/m 3,5 km/h (1 Bft)
19.11.2013 14:00 2,6 C 99 % 1003,3 hPa 0,0 l/m N-NO 0,00 h 16 W/m 3,1 km/h (1 Bft)
19.11.2013 15:00 2,8 C 99 % 1003,7 hPa 0,0 l/m N-NO 0,00 h 8 W/m 5,2 km/h (1 Bft)
19.11.2013 16:00 2,7 C 99 % 1003,7 hPa 0,0 l/m N-NO 0,00 h 5 W/m 3,1 km/h (1 Bft)
19.11.2013 17:00 2,8 C 99 % 1003,7 hPa 0,0 l/m N-NO 0,00 h 0 W/m 1,1 km/h (0 Bft)
19.11.2013 18:00 2,7 C 99 % 1003,2 hPa 0,4 l/m N 0,00 h 0 W/m 8,8 km/h (2 Bft)
19.11.2013 19:00 2,3 C 98 % 1003,0 hPa 0,6 l/m N 0,00 h 0 W/m 7,8 km/h (2 Bft)
19.11.2013 20:00 2,0 C 98 % 1003,3 hPa 1,0 l/m N 0,00 h 0 W/m 2,7 km/h (1 Bft)
19.11.2013 21:00 1,4 C 98 % 1003,7 hPa 1,0 l/m N 0,00 h 0 W/m 0,4 km/h (0 Bft)
19.11.2013 22:00 1,0 C 98 % 1003,8 hPa 0,6 l/m N 0,00 h 0 W/m 1,1 km/h (0 Bft)
19.11.2013 23:00 1,2 C 98 % 1004,0 hPa 0,6 l/m N 0,00 h 0 W/m 6,3 km/h (2 Bft)
20.11.2013 00:00 1,4 C 98 % 1003,8 hPa 0,2 l/m N 0,00 h 0 W/m 2,9 km/h (1 Bft)
20.11.2013 01:00 1,5 C 98 % 1003,8 hPa 0,0 l/m N 0,00 h 0 W/m 2,0 km/h (1 Bft)
20.11.2013 02:00 1,7 C 98 % 1003,9 hPa 0,2 l/m N 0,00 h 0 W/m 4,7 km/h (1 Bft)
20.11.2013 03:00 1,7 C 98 % 1004,0 hPa 0,0 l/m NW 0,00 h 0 W/m 6,4 km/h (2 Bft)
20.11.2013 04:00 1,7 C 98 % 1004,0 hPa 0,0 l/m NW 0,00 h 0 W/m 7,6 km/h (2 Bft)
20.11.2013 05:00 1,7 C 98 % 1004,1 hPa 0,0 l/m W-NW 0,00 h 0 W/m 6,9 km/h (2 Bft)
20.11.2013 06:00 1,6 C 98 % 1004,5 hPa 0,0 l/m W-NW 0,00 h 0 W/m 5,6 km/h (1 Bft)
20.11.2013 07:00 1,4 C 98 % 1005,1 hPa 0,2 l/m W-NW 0,08 h 14 W/m 6,3 km/h (2 Bft)
20.11.2013 08:00 1,5 C 98 % 1005,3 hPa 0,0 l/m W-NW 0,00 h 42 W/m 7,9 km/h (2 Bft)
20.11.2013 09:00 2,1 C 98 % 1005,3 hPa 0,0 l/m W-SW 0,00 h 81 W/m 7,8 km/h (2 Bft)
20.11.2013 10:00 2,7 C 96 % 1005,1 hPa 0,0 l/m W 0,00 h 80 W/m 8,7 km/h (2 Bft)
20.11.2013 11:00 2,8 C 94 % 1005,0 hPa 0,0 l/m W 0,00 h 52 W/m 8,4 km/h (2 Bft)
20.11.2013 12:00 3,0 C 94 % 1004,5 hPa 0,0 l/m W 0,00 h 37 W/m 5,3 km/h (1 Bft)
20.11.2013 13:00 3,2 C 94 % 1004,2 hPa 0,0 l/m W 0,00 h 35 W/m 5,2 km/h (1 Bft)
20.11.2013 14:00 3,2 C 94 % 1004,1 hPa 0,0 l/m W 0,00 h 24 W/m 5,1 km/h (1 Bft)
20.11.2013 15:00 3,2 C 94 % 1004,1 hPa 0,2 l/m W 0,00 h 12 W/m 2,9 km/h (1 Bft)
20.11.2013 16:00 3,0 C 94 % 1004,0 hPa 0,2 l/m N 0,00 h 6 W/m 1,5 km/h (1 Bft)
20.11.2013 17:00 2,7 C 95 % 1003,7 hPa 0,0 l/m N 0,00 h 0 W/m 2,1 km/h (1 Bft)
20.11.2013 18:00 2,4 C 95 % 1003,6 hPa 0,2 l/m N 0,00 h 0 W/m 1,1 km/h (0 Bft)
20.11.2013 19:00 2,3 C 95 % 1003,3 hPa 0,0 l/m N 0,00 h 0 W/m 0,3 km/h (0 Bft)
20.11.2013 20:00 2,2 C 96 % 1003,1 hPa 0,0 l/m N 0,00 h 0 W/m 0,9 km/h (0 Bft)
20.11.2013 21:00 2,1 C 96 % 1002,7 hPa 0,0 l/m W 0,00 h 0 W/m 1,6 km/h (1 Bft)
20.11.2013 22:00 1,9 C 96 % 1002,2 hPa 0,6 l/m W 0,00 h 0 W/m 4,7 km/h (1 Bft)
20.11.2013 23:00 1,5 C 96 % 1001,6 hPa 0,6 l/m N 0,00 h 0 W/m 2,8 km/h (1 Bft)
21.11.2013 00:00 1,0 C 96 % 1001,0 hPa 0,0 l/m W 0,00 h 0 W/m 4,0 km/h (1 Bft)
21.11.2013 01:00 0,7 C 97 % 1000,3 hPa 0,0 l/m W 0,00 h 0 W/m 4,7 km/h (1 Bft)
21.11.2013 02:00 0,8 C 97 % 999,7 hPa 0,2 l/m W 0,00 h 0 W/m 1,7 km/h (1 Bft)
21.11.2013 03:00 1,0 C 97 % 998,9 hPa 0,2 l/m W 0,00 h 0 W/m 3,3 km/h (1 Bft)
21.11.2013 04:00 1,1 C 97 % 998,1 hPa 0,2 l/m W-SW 0,00 h 0 W/m 4,7 km/h (1 Bft)
21.11.2013 05:00 0,9 C 98 % 997,5 hPa 0,0 l/m SW 0,00 h 0 W/m 3,9 km/h (1 Bft)
21.11.2013 06:00 1,0 C 98 % 996,6 hPa 0,2 l/m SW 0,00 h 0 W/m 4,7 km/h (1 Bft)
21.11.2013 07:00 0,9 C 98 % 996,1 hPa 0,0 l/m SW 0,08 h 12 W/m 5,1 km/h (1 Bft)
21.11.2013 08:00 0,8 C 98 % 995,8 hPa 0,0 l/m W 0,00 h 42 W/m 9,4 km/h (2 Bft)
21.11.2013 09:00 1,5 C 98 % 995,4 hPa 0,0 l/m O-NO 0,08 h 70 W/m 13,4 km/h (3 Bft)
21.11.2013 10:00 2,5 C 96 % 995,5 hPa 0,0 l/m O-NO 0,00 h 35 W/m 11,5 km/h (2 Bft)
21.11.2013 11:00 2,6 C 94 % 995,5 hPa 0,0 l/m O 0,00 h 50 W/m 10,7 km/h (2 Bft)
21.11.2013 12:00 2,8 C 92 % 995,3 hPa 0,0 l/m NO 0,00 h 46 W/m 7,9 km/h (2 Bft)
21.11.2013 13:00 2,8 C 92 % 995,6 hPa 0,0 l/m NO 0,00 h 33 W/m 8,8 km/h (2 Bft)
21.11.2013 14:00 2,7 C 93 % 996,1 hPa 0,0 l/m NO 0,00 h 26 W/m 8,2 km/h (2 Bft)
21.11.2013 15:00 2,6 C 94 % 996,5 hPa 0,0 l/m NO 0,00 h 16 W/m 9,1 km/h (2 Bft)
21.11.2013 16:00 2,3 C 94 % 996,5 hPa 0,0 l/m NO 0,00 h 0 W/m 9,5 km/h (2 Bft)
21.11.2013 17:00 2,2 C 95 % 996,8 hPa 0,0 l/m NO 0,00 h 0 W/m 7,0 km/h (2 Bft)
21.11.2013 18:00 2,2 C 95 % 997,4 hPa 0,0 l/m NO 0,00 h 0 W/m 6,9 km/h (2 Bft)
21.11.2013 19:00 2,1 C 95 % 997,8 hPa 0,0 l/m NO 0,00 h 0 W/m 5,5 km/h (1 Bft)
21.11.2013 20:00 2,0 C 96 % 997,8 hPa 0,0 l/m NO 0,00 h 0 W/m 7,2 km/h (2 Bft)
21.11.2013 21:00 1,9 C 96 % 997,9 hPa 0,0 l/m N-NO 0,00 h 0 W/m 9,5 km/h (2 Bft)
21.11.2013 22:00 1,9 C 96 % 997,9 hPa 0,0 l/m N-NO 0,00 h 0 W/m 12,6 km/h (3 Bft)
21.11.2013 23:00 1,9 C 96 % 997,7 hPa 0,0 l/m NO 0,00 h 0 W/m 16,1 km/h (3 Bft)
22.11.2013 00:00 1,8 C 96 % 997,3 hPa 0,0 l/m N-NO 0,00 h 0 W/m 14,6 km/h (3 Bft)
22.11.2013 01:00 1,7 C 96 % 997,2 hPa 0,0 l/m N-NO 0,00 h 0 W/m 15,2 km/h (3 Bft)
22.11.2013 02:00 1,7 C 96 % 997,4 hPa 0,0 l/m N-NO 0,00 h 0 W/m 12,6 km/h (3 Bft)
22.11.2013 03:00 1,7 C 96 % 997,8 hPa 0,2 l/m N-NO 0,00 h 0 W/m 9,3 km/h (2 Bft)
22.11.2013 04:00 1,8 C 97 % 998,1 hPa 0,2 l/m N-NO 0,00 h 0 W/m 8,6 km/h (2 Bft)
22.11.2013 05:00 2,0 C 97 % 998,0 hPa 0,2 l/m NO 0,00 h 0 W/m 12,3 km/h (3 Bft)
22.11.2013 06:00 2,2 C 98 % 998,7 hPa 0,0 l/m NO 0,00 h 0 W/m 9,8 km/h (2 Bft)
22.11.2013 07:00 2,3 C 98 % 999,2 hPa 0,2 l/m NO 0,00 h 0 W/m 9,3 km/h (2 Bft)
22.11.2013 08:00 2,4 C 99 % 999,4 hPa 0,0 l/m NO 0,00 h 7 W/m 8,4 km/h (2 Bft)
22.11.2013 09:00 2,7 C 99 % 1000,0 hPa 0,0 l/m NO 0,00 h 14 W/m 5,1 km/h (1 Bft)
22.11.2013 10:00 3,3 C 99 % 1000,4 hPa 0,0 l/m NO 0,08 h 76 W/m 7,1 km/h (2 Bft)
22.11.2013 11:00 3,4 C 98 % 1000,8 hPa 0,0 l/m NO 0,00 h 24 W/m 6,1 km/h (2 Bft)
22.11.2013 12:00 3,5 C 97 % 1001,1 hPa 0,0 l/m NO 0,00 h 28 W/m 1,9 km/h (1 Bft)
22.11.2013 13:00 3,4 C 97 % 1001,8 hPa 0,0 l/m S-SW 0,00 h 25 W/m 7,0 km/h (2 Bft)
22.11.2013 14:00 3,2 C 97 % 1002,3 hPa 0,0 l/m S-SW 0,00 h 31 W/m 3,2 km/h (1 Bft)
22.11.2013 15:00 3,4 C 97 % 1003,2 hPa 0,0 l/m S-SW 0,00 h 34 W/m 6,0 km/h (2 Bft)
22.11.2013 16:00 3,2 C 97 % 1003,7 hPa 0,0 l/m N 0,00 h 9 W/m 0,9 km/h (0 Bft)
22.11.2013 17:00 2,7 C 97 % 1004,3 hPa 0,0 l/m S-SW 0,00 h 0 W/m 0,7 km/h (0 Bft)
22.11.2013 18:00 2,3 C 97 % 1005,3 hPa 0,0 l/m N 0,00 h 0 W/m 0,0 km/h (0 Bft)
22.11.2013 19:00 2,3 C 97 % 1006,0 hPa 0,0 l/m N 0,00 h 0 W/m 0,8 km/h (0 Bft)
22.11.2013 20:00 2,2 C 97 % 1006,6 hPa 0,0 l/m SW 0,00 h 0 W/m 1,7 km/h (1 Bft)
22.11.2013 21:00 1,9 C 97 % 1006,9 hPa 0,0 l/m SW 0,00 h 0 W/m 4,0 km/h (1 Bft)
22.11.2013 22:00 1,1 C 97 % 1007,4 hPa 0,0 l/m SW 0,00 h 0 W/m 3,5 km/h (1 Bft)
22.11.2013 23:00 0,6 C 97 % 1007,7 hPa 0,0 l/m N 0,00 h 0 W/m 1,1 km/h (0 Bft)
23.11.2013 00:00 0,7 C 97 % 1007,5 hPa 0,0 l/m N 0,00 h 0 W/m 1,3 km/h (1 Bft)
23.11.2013 01:00 1,2 C 98 % 1007,7 hPa 0,0 l/m N 0,00 h 0 W/m 1,2 km/h (1 Bft)
23.11.2013 02:00 1,5 C 98 % 1007,8 hPa 0,0 l/m SW 0,00 h 0 W/m 1,3 km/h (1 Bft)
23.11.2013 03:00 1,9 C 98 % 1007,9 hPa 0,0 l/m SW 0,00 h 0 W/m 4,4 km/h (1 Bft)
23.11.2013 04:00 2,5 C 98 % 1007,7 hPa 0,2 l/m W-NW 0,00 h 0 W/m 7,6 km/h (2 Bft)
23.11.2013 05:00 3,0 C 99 % 1007,9 hPa 0,2 l/m N-NO 0,00 h 0 W/m 11,8 km/h (2 Bft)
23.11.2013 06:00 3,1 C 99 % 1008,1 hPa 0,6 l/m NO 0,00 h 0 W/m 13,8 km/h (3 Bft)
23.11.2013 07:00 3,2 C 99 % 1008,4 hPa 0,2 l/m N-NO 0,00 h 0 W/m 14,9 km/h (3 Bft)
23.11.2013 08:00 3,2 C 98 % 1008,6 hPa 0,6 l/m NO 0,00 h 6 W/m 18,9 km/h (3 Bft)
23.11.2013 09:00 3,3 C 98 % 1009,1 hPa 0,4 l/m NO 0,00 h 12 W/m 17,0 km/h (3 Bft)
23.11.2013 10:00 3,6 C 98 % 1009,2 hPa 0,2 l/m NO 0,00 h 21 W/m 17,8 km/h (3 Bft)
23.11.2013 11:00 3,9 C 98 % 1009,0 hPa 0,2 l/m NO 0,00 h 25 W/m 17,0 km/h (3 Bft)
23.11.2013 12:00 4,2 C 98 % 1008,6 hPa 0,2 l/m N-NO 0,00 h 18 W/m 18,6 km/h (3 Bft)
23.11.2013 13:00 4,3 C 98 % 1008,7 hPa 0,2 l/m NO 0,00 h 13 W/m 22,0 km/h (4 Bft)
23.11.2013 14:00 4,3 C 98 % 1008,6 hPa 0,2 l/m O-NO 0,00 h 15 W/m 22,5 km/h (4 Bft)
23.11.2013 15:00 4,2 C 98 % 1009,0 hPa 0,0 l/m O-NO 0,00 h 10 W/m 24,1 km/h (4 Bft)
23.11.2013 16:00 4,1 C 98 % 1009,2 hPa 0,8 l/m NO 0,00 h 0 W/m 22,9 km/h (4 Bft)
23.11.2013 17:00 4,1 C 98 % 1009,7 hPa 0,0 l/m N-NO 0,00 h 0 W/m 22,2 km/h (4 Bft)
23.11.2013 18:00 4,0 C 97 % 1010,0 hPa 0,2 l/m N-NO 0,00 h 0 W/m 22,6 km/h (4 Bft)
23.11.2013 19:00 3,9 C 97 % 1010,5 hPa 0,4 l/m NO 0,00 h 0 W/m 22,9 km/h (4 Bft)
23.11.2013 20:00 3,8 C 97 % 1010,8 hPa 0,4 l/m NO 0,00 h 0 W/m 21,1 km/h (4 Bft)
23.11.2013 21:00 3,7 C 97 % 1011,2 hPa 0,6 l/m NO 0,00 h 0 W/m 17,3 km/h (3 Bft)
23.11.2013 22:00 3,6 C 97 % 1011,4 hPa 0,4 l/m N-NO 0,00 h 0 W/m 19,0 km/h (3 Bft)
23.11.2013 23:00 3,5 C 97 % 1011,5 hPa 0,4 l/m NO 0,00 h 0 W/m 18,2 km/h (3 Bft)
24.11.2013 00:00 3,4 C 97 % 1011,5 hPa 0,2 l/m N-NO 0,00 h 0 W/m 16,2 km/h (3 Bft)
24.11.2013 01:00 3,3 C 97 % 1011,8 hPa 0,2 l/m NO 0,00 h 0 W/m 18,5 km/h (3 Bft)
24.11.2013 02:00 3,3 C 97 % 1012,2 hPa 0,4 l/m N-NO 0,00 h 0 W/m 16,9 km/h (3 Bft)
24.11.2013 03:00 3,3 C 97 % 1012,5 hPa 0,2 l/m NO 0,00 h 0 W/m 14,4 km/h (3 Bft)
24.11.2013 04:00 3,3 C 97 % 1012,7 hPa 0,2 l/m N-NO 0,00 h 0 W/m 14,9 km/h (3 Bft)
24.11.2013 05:00 3,3 C 97 % 1012,8 hPa 0,0 l/m N-NO 0,00 h 0 W/m 12,8 km/h (3 Bft)
24.11.2013 06:00 3,5 C 98 % 1013,1 hPa 0,2 l/m NO 0,00 h 0 W/m 12,9 km/h (3 Bft)
24.11.2013 07:00 3,7 C 98 % 1013,6 hPa 0,4 l/m N-NO 0,00 h 0 W/m 11,8 km/h (2 Bft)
24.11.2013 08:00 3,8 C 98 % 1014,3 hPa 0,4 l/m N-NO 0,00 h 8 W/m 15,2 km/h (3 Bft)
24.11.2013 09:00 3,8 C 98 % 1014,8 hPa 0,2 l/m N-NO 0,00 h 20 W/m 18,6 km/h (3 Bft)
24.11.2013 10:00 3,8 C 98 % 1015,4 hPa 0,0 l/m NO 0,00 h 25 W/m 16,0 km/h (3 Bft)
24.11.2013 11:00 3,5 C 97 % 1015,7 hPa 0,0 l/m N-NO 0,00 h 28 W/m 15,4 km/h (3 Bft)
24.11.2013 12:00 3,3 C 96 % 1016,0 hPa 0,0 l/m NO 0,00 h 28 W/m 12,8 km/h (3 Bft)
24.11.2013 13:00 3,2 C 96 % 1016,1 hPa 0,2 l/m N-NO 0,00 h 21 W/m 11,4 km/h (2 Bft)
24.11.2013 14:00 3,1 C 96 % 1016,2 hPa 0,0 l/m N-NO 0,00 h 19 W/m 7,6 km/h (2 Bft)
24.11.2013 15:00 3,0 C 96 % 1016,8 hPa 0,0 l/m N-NO 0,00 h 10 W/m 12,6 km/h (3 Bft)
24.11.2013 16:00 2,8 C 95 % 1017,5 hPa 0,0 l/m N-NO 0,00 h 5 W/m 11,8 km/h (2 Bft)
24.11.2013 17:00 2,7 C 95 % 1018,1 hPa 0,0 l/m N-NO 0,00 h 0 W/m 11,8 km/h (2 Bft)
24.11.2013 18:00 2,5 C 95 % 1018,9 hPa 0,0 l/m N-NO 0,00 h 0 W/m 9,4 km/h (2 Bft)
24.11.2013 19:00 2,4 C 94 % 1019,4 hPa 0,0 l/m N 0,00 h 0 W/m 6,8 km/h (2 Bft)
24.11.2013 20:00 2,3 C 93 % 1019,7 hPa 0,0 l/m N 0,00 h 0 W/m 3,9 km/h (1 Bft)
24.11.2013 21:00 2,0 C 93 % 1020,0 hPa 0,0 l/m N 0,00 h 0 W/m 2,4 km/h (1 Bft)
24.11.2013 22:00 1,8 C 93 % 1020,3 hPa 0,0 l/m N 0,00 h 0 W/m 3,6 km/h (1 Bft)
24.11.2013 23:00 1,8 C 95 % 1020,9 hPa 0,0 l/m N 0,00 h 0 W/m 6,3 km/h (2 Bft)
Min-Datum _ 22.11.13 21.11.13 21.11.13 - - - - 18.11.13
_ Min-Zeit 23:40 12:05 10:00 - - - - 06:55
Minimum _ 0,5 C 91 % 995,1 hPa - - - - 0,0 km/h (0 Bft)
Max-Datum _ 23.11.13 20.11.13 24.11.13 19.11.13 - 20.11.13 21.11.13 23.11.13
_ Max-Zeit 13:05 17:45 23:45 20:10 - 07:50 09:45 15:20
Maximum _ 4,3 C 100 % 1021,2 hPa 1,0 l/m - 0,08 h 178 W/m 33,8 km/h
N-NO (5 Bft)
Durchschnitt _ 2,4 C 97 % 1006,3 hPa #17,2 l/m NO #20 min. 33 W/m 8,0 km/h (2 Bft)